GW3147 Weather Reports


time (UTC)temp
F
wind
direction
speed
knots
gust
knots
rain 1hr
in
rain 24hr
in
rain mn
in
humidity
%
barometer
mb
20260504194541 68 236 2.6 9.6 0.00 0.00 0.00 34 1010.0
20260504193041 67 262 1.7 12.2 0.00 0.00 0.00 35 1010.0
20260504191544 67 257 1.7 7.8 0.00 0.00 0.00 36 1010.0
20260504190036 67 257 3.5 7.0 0.00 0.00 0.00 35 1010.2
20260504184543 67 285 2.6 8.7 0.00 0.00 0.00 35 1010.2
20260504183041 67 273 5.2 11.3 0.00 0.00 0.00 35 1010.6
20260504181543 67 252 2.6 7.8 0.00 0.00 0.00 36 1010.6
20260504180041 66 233 3.5 8.7 0.00 0.00 0.00 34 1010.8
20260504174535 65 200 2.6 10.4 0.00 0.00 0.00 34 1011.0
20260504173042 66 233 2.6 12.2 0.00 0.00 0.00 34 1011.0
20260504171542 66 265 2.6 8.7 0.00 0.00 0.00 39 1011.1
20260504081541 47 295 0.0 3.5 0.00 0.00 0.00 53 1012.1
20260504044539 44 0 0.0 0.9 0.00 0.00 0.00 52 1012.5
20260504043036 43 0 0.0 0.9 0.00 0.00 0.00 51 1012.5
20260504041534 43 0 0.0 0.9 0.00 0.00 0.00 50 1012.4
20260504040048 44 0 0.0 0.9 0.00 0.00 0.00 50 1012.3
20260504034543 44 0 0.0 0.9 0.00 0.00 0.00 48 1012.2
20260504033041 44 0 0.0 0.0 0.00 0.00 0.00 48 1012.2
20260504031544 45 0 0.0 0.9 0.00 0.00 0.00 47 1012.2
20260504030037 45 295 0.0 1.7 0.00 0.00 0.00 48 1012.1
20260504024535 45 0 0.0 0.9 0.00 0.00 0.00 47 1012.0
20260504023043 45 0 0.0 1.7 0.00 0.00 0.00 47 1012.0
20260504021543 45 0 0.0 0.9 0.00 0.00 0.00 47 1011.8
20260504020043 45 0 0.0 0.9 0.00 0.00 0.00 46 1011.9
20260504014536 46 295 0.0 0.9 0.00 0.00 0.00 46 1011.7
20260504013036 46 0 0.0 1.7 0.00 0.00 0.00 45 1011.7
20260504011544 46 295 0.0 0.9 0.00 0.00 0.00 46 1011.6
20260504010041 46 0 0.0 0.9 0.00 0.00 0.00 46 1011.3
20260504004546 46 295 0.0 0.9 0.00 0.00 0.00 46 1011.1
20260504003046 46 295 0.0 0.9 0.00 0.00 0.00 46 1011.0
20260504001541 47 0 0.0 1.7 0.00 0.00 0.00 45 1010.8
20260504000054 48 295 0.0 0.9 0.00 0.00 0.00 44 1010.5
20260503234551 48 295 0.0 1.7 0.00 0.00 0.00 43 1010.6
20260503233041 49 0 0.9 7.8 0.00 0.00 0.00 42 1010.4
20260503231541 49 293 1.7 7.8 0.00 0.00 0.00 41 1010.3
20260503230041 49 295 1.7 3.5 0.00 0.00 0.00 41 1010.1
20260503224536 49 295 1.7 8.7 0.00 0.00 0.00 42 1010.1
20260503223039 49 295 1.7 6.1 0.00 0.00 0.00 42 1010.0
20260503221550 49 295 0.9 7.8 0.00 0.00 0.00 42 1010.0
20260503220043 49 297 4.3 8.7 0.00 0.00 0.00 42 1009.9
20260503214543 49 295 3.5 9.6 0.00 0.00 0.00 42 1009.9
20260503213040 48 300 2.6 11.3 0.00 0.00 0.00 46 1009.9
20260503211540 49 295 3.5 9.6 0.00 0.00 0.00 44 1009.7
20260503210036 49 298 3.5 11.3 0.00 0.00 0.00 44 1009.5
20260503204533 48 297 2.6 9.6 0.00 0.00 0.00 44 1009.4
20260503203100 48 303 3.5 13.9 0.00 0.00 0.00 44 1009.5
20260503201542 48 298 4.3 11.3 0.00 0.00 0.00 45 1009.2
20260503200041 49 300 2.6 9.6 0.00 0.00 0.00 44 1009.1